This is the latest recevied weather packets stored in our database for station/object SIILIN. If no packets are shown the sender has not sent any weather packets the latest 1 day(s).
| Time | Temp. | Humidity | Pressure | Rain* | Wind** | Luminosity | Snow |
|---|---|---|---|---|---|---|---|
| 1778098045 | 5.56° C | 43% | 1014.6 hPa | - | - | - | - |
| 1778095644 | 6.11° C | 44% | 1014.6 hPa | - | - | - | - |
| 1778094444 | 6.67° C | 44% | 1014.4 hPa | - | - | - | - |
| 1778092045 | 7.22° C | 44% | 1014.1 hPa | - | - | - | - |
| 1778090844 | 7.22° C | 44% | 1013.9 hPa | - | - | - | - |
| 1778086043 | 7.78° C | 39% | 1013.3 hPa | - | - | - | - |
| 1778082444 | 8.33° C | 31% | 1013.4 hPa | - | - | - | - |
| 1778081244 | 7.78° C | 34% | 1013.3 hPa | - | - | - | - |
| 1778080043 | 7.78° C | 31% | 1013.2 hPa | - | - | - | - |
| 1778078843 | 7.78° C | 32% | 1013.3 hPa | - | - | - | - |
| 1778077643 | 8.33° C | 27% | 1013.2 hPa | - | - | - | - |
| 1778075243 | 7.78° C | 29% | 1013.1 hPa | - | - | - | - |
| 1778072842 | 7.78° C | 36% | 1012.8 hPa | - | - | - | - |
| 1778068043 | 7.78° C | 31% | 1012.5 hPa | - | - | - | - |
| 1778066843 | 7.78° C | 36% | 1012.4 hPa | - | - | - | - |
| 1778063244 | 7.22° C | 31% | 1012.2 hPa | - | - | - | - |
| 1778062044 | 7.22° C | 31% | 1012 hPa | - | - | - | - |
| 1778060844 | 7.22° C | 34% | 1011.7 hPa | - | - | - | - |
| 1778057244 | 6.67° C | 40% | 1011.6 hPa | - | - | - | - |
| 1778056044 | 6.67° C | 42% | 1011.5 hPa | - | - | - | - |
| 1778054843 | 6.11° C | 41% | 1011.5 hPa | - | - | - | - |
| 1778053643 | 6.11° C | 42% | 1011.2 hPa | - | - | - | - |
| 1778052444 | 5.56° C | 49% | 1011.2 hPa | - | - | - | - |
| 1778050044 | 5° C | 49% | 1010.9 hPa | - | - | - | - |
| 1778047643 | 4.44° C | 56% | 1010.8 hPa | - | - | - | - |
* Rain since midnight (hover to see other rain measurements)
** Current wind speed in m/s (hover to see current wind gust speed)